sat.trackr.live / text

‹ back to catalog

STARLINK-34229

NORAD 64250 · 2025-119T

PAYLOAD ACTIVE UNKNOWN

§ Identity

Operator
Country
US
Launch date
2025-06-03
Launch site
AFETR
Launch vehicle
Mass (kg)
RCS (m²)

Purposes: comms

External: N2YO · Heavens-Above · Gunter

§ Orbital elements

Epoch: 2026-05-24T23:31:03.055872Z

Period
94.27 min
Inclination
43.0029°
Eccentricity
0.0002119
Mean motion
15.27591601 rev/d
Perigee alt
481.6 km
Apogee alt
484.5 km
Semi-major
6,861.2 km
B*
5.1980e-4
RAAN
236.4910°
Arg perigee
274.0363°
Mean anomaly
86.0247°
Rev number
5,583

§ Raw data

STARLINK-342291 64250U 25119T   26144.97989648  .00014074  00000+0  51980-3 0  99932 64250  43.0029 236.4910 0002119 274.0363  86.0247 15.27591601 55835

JSON: /api/v1/satellites/64250 · /tle

For live sub-satellite position, see the globe view (requires WebGL).

§ Visibility from observer

Set your observer location to see the next 7 days of passes ≥ 10°. The values pass through the URL so the page stays shareable.

No JS? Fill the form by hand. The geolocation button needs JavaScript.